When you browse on this site, cookies collect data to enhance your experience and personalize the content and advertising you see.
Visit our Privacy Policy to learn more. By continuing to use the site, you agree to this use of cookies and data.
  • In Czech Republic
  • List of Countries
  • For 7 days
  • Water Temperature
  • Satellite Maps
  • Weather Map
  • Weather Widgets
  • user-avatar
    Login

    Hourly Weather Ad-Dauha

    Today, 16 June, Sunday

    Time Temperature Precipitation Wind Pressure Humidity
    00:00 +34°C° 0 mm 2 mps 748 mmHg 43%
    01:00 +34°C° 0 mm 2 mps 747 mmHg 44%
    02:00 +34°C° 0 mm 3 mps 747 mmHg 45%
    03:00 +34°C° 0 mm 4 mps 747 mmHg 44%
    04:00 +34°C° 0 mm 4 mps 747 mmHg 44%
    05:00 +35°C° 0 mm 4 mps 748 mmHg 43%
    06:00 +36°C° 0 mm 4 mps 748 mmHg 43%
    07:00 +40°C° 0 mm 4 mps 748 mmHg 35%
    08:00 +43°C° 0 mm 5 mps 748 mmHg 27%
    09:00 +47°C° 0 mm 5 mps 749 mmHg 20%
    10:00 +47°C° 0 mm 6 mps 749 mmHg 19%
    11:00 +48°C° 0 mm 6 mps 749 mmHg 18%
    12:00 +50°C° 0 mm 7 mps 749 mmHg 17%
    13:00 +49°C° 0 mm 7 mps 748 mmHg 19%
    14:00 +49°C° 0 mm 7 mps 748 mmHg 21%
    15:00 +47°C° 0 mm 7 mps 747 mmHg 22%
    16:00 +46°C° 0 mm 6 mps 748 mmHg 24%
    17:00 +44°C° 0 mm 6 mps 748 mmHg 27%
    18:00 +42°C° 0 mm 5 mps 748 mmHg 29%
    19:00 +40°C° 0 mm 4 mps 748 mmHg 33%
    20:00 +38°C° 0 mm 4 mps 748 mmHg 37%
    21:00 +36°C° 0 mm 3 mps 749 mmHg 41%
    22:00 +35°C° 0 mm 2 mps 748 mmHg 41%
    23:00 +35°C° 0 mm 2 mps 748 mmHg 40%

    Tomorrow, 17 June, Monday

    Time Temperature Precipitation Wind Pressure Humidity
    00:00 +33°C° 0 mm 1 mps 748 mmHg 40%
    01:00 +34°C° 0 mm 2 mps 748 mmHg 38%
    02:00 +34°C° 0 mm 2 mps 747 mmHg 35%
    03:00 +35°C° 0 mm 2 mps 747 mmHg 32%
    04:00 +36°C° 0 mm 3 mps 748 mmHg 30%
    05:00 +37°C° 0 mm 4 mps 748 mmHg 27%
    06:00 +39°C° 0 mm 5 mps 749 mmHg 24%
    07:00 +41°C° 0 mm 5 mps 749 mmHg 21%
    08:00 +45°C° 0 mm 6 mps 749 mmHg 18%
    09:00 +48°C° 0 mm 6 mps 750 mmHg 14%
    10:00 +49°C° 0 mm 6 mps 749 mmHg 13%
    11:00 +51°C° 0 mm 6 mps 749 mmHg 12%
    12:00 +52°C° 0 mm 6 mps 749 mmHg 11%
    13:00 +52°C° 0 mm 6 mps 749 mmHg 12%
    14:00 +52°C° 0 mm 6 mps 748 mmHg 12%
    15:00 +51°C° 0 mm 6 mps 748 mmHg 13%
    16:00 +48°C° 0 mm 6 mps 748 mmHg 15%
    17:00 +47°C° 0 mm 6 mps 748 mmHg 18%
    18:00 +45°C° 0 mm 5 mps 748 mmHg 21%
    19:00 +42°C° 0 mm 5 mps 748 mmHg 25%
    20:00 +41°C° 0 mm 5 mps 749 mmHg 29%
    21:00 +39°C° 0 mm 5 mps 749 mmHg 32%
    22:00 +38°C° 0 mm 4 mps 749 mmHg 32%
    23:00 +38°C° 0 mm 4 mps 748 mmHg 32%

    Day after tomorrow, 18 June, Tuesday

    Time Temperature Precipitation Wind Pressure Humidity
    00:00 +38°C° 0 mm 4 mps 748 mmHg 31%
    01:00 +37°C° 0 mm 4 mps 748 mmHg 32%
    02:00 +37°C° 0 mm 5 mps 747 mmHg 33%
    03:00 +37°C° 0 mm 5 mps 747 mmHg 34%
    04:00 +38°C° 0 mm 6 mps 747 mmHg 35%
    05:00 +38°C° 0 mm 6 mps 748 mmHg 36%
    06:00 +38°C° 0 mm 6 mps 748 mmHg 38%
    07:00 +41°C° 0 mm 7 mps 748 mmHg 31%
    08:00 +45°C° 0 mm 8 mps 749 mmHg 24%
    09:00 +49°C° 0 mm 8 mps 749 mmHg 17%
    10:00 +50°C° 0 mm 9 mps 749 mmHg 15%
    11:00 +51°C° 0 mm 9 mps 749 mmHg 14%
    12:00 +53°C° 0 mm 9 mps 749 mmHg 12%
    13:00 +53°C° 0 mm 9 mps 748 mmHg 12%
    14:00 +53°C° 0 mm 9 mps 748 mmHg 11%
    15:00 +53°C° 0 mm 10 mps 747 mmHg 11%
    16:00 +50°C° 0 mm 9 mps 747 mmHg 13%
    17:00 +48°C° 0 mm 8 mps 747 mmHg 15%
    18:00 +45°C° 0 mm 7 mps 747 mmHg 17%
    19:00 +42°C° 0 mm 6 mps 748 mmHg 21%
    20:00 +41°C° 0 mm 5 mps 748 mmHg 24%
    21:00 +39°C° 0 mm 5 mps 748 mmHg 28%
    22:00 +39°C° 0 mm 5 mps 747 mmHg 29%
    23:00 +37°C° 0 mm 5 mps 747 mmHg 29%

    19 June, Wednesday

    Time Temperature Precipitation Wind Pressure Humidity
    00:00 +37°C° 0 mm 5 mps 747 mmHg 29%
    01:00 +37°C° 0 mm 5 mps 746 mmHg 30%
    02:00 +37°C° 0 mm 5 mps 746 mmHg 30%
    03:00 +38°C° 0 mm 6 mps 746 mmHg 31%
    04:00 +38°C° 0 mm 6 mps 746 mmHg 31%
    05:00 +38°C° 0 mm 6 mps 747 mmHg 31%
    06:00 +38°C° 0 mm 7 mps 747 mmHg 32%
    07:00 +41°C° 0 mm 7 mps 747 mmHg 27%
    08:00 +44°C° 0 mm 8 mps 748 mmHg 22%
    09:00 +48°C° 0 mm 9 mps 748 mmHg 17%
    10:00 +48°C° 0 mm 9 mps 748 mmHg 16%
    11:00 +49°C° 0 mm 10 mps 748 mmHg 15%
    12:00 +50°C° 0 mm 10 mps 748 mmHg 14%
    13:00 +49°C° 0 mm 10 mps 748 mmHg 14%
    14:00 +49°C° 0 mm 10 mps 747 mmHg 14%
    15:00 +48°C° 0 mm 11 mps 747 mmHg 15%
    16:00 +47°C° 0 mm 9 mps 747 mmHg 15%
    17:00 +45°C° 0 mm 8 mps 747 mmHg 16%
    18:00 +43°C° 0 mm 7 mps 747 mmHg 17%
    19:00 +41°C° 0 mm 7 mps 747 mmHg 22%
    20:00 +39°C° 0 mm 6 mps 747 mmHg 27%
    21:00 +36°C° 0 mm 6 mps 748 mmHg 33%
    22:00 +36°C° 0 mm 6 mps 747 mmHg 35%
    23:00 +36°C° 0 mm 6 mps 747 mmHg 37%

    20 June, Thursday

    Time Temperature Precipitation Wind Pressure Humidity
    00:00 +36°C° 0 mm 7 mps 747 mmHg 38%
    01:00 +36°C° 0 mm 7 mps 747 mmHg 38%
    02:00 +36°C° 0 mm 7 mps 746 mmHg 38%
    03:00 +37°C° 0 mm 8 mps 746 mmHg 38%
    04:00 +37°C° 0 mm 8 mps 747 mmHg 41%
    05:00 +37°C° 0 mm 8 mps 747 mmHg 44%
    06:00 +36°C° 0 mm 7 mps 747 mmHg 47%
    07:00 +39°C° 0 mm 8 mps 748 mmHg 37%
    08:00 +43°C° 0 mm 9 mps 748 mmHg 27%
    09:00 +45°C° 0 mm 10 mps 748 mmHg 17%
    10:00 +47°C° 0 mm 10 mps 748 mmHg 16%
    11:00 +47°C° 0 mm 10 mps 748 mmHg 16%
    12:00 +47°C° 0 mm 11 mps 748 mmHg 15%
    13:00 +47°C° 0 mm 11 mps 747 mmHg 15%
    14:00 +47°C° 0 mm 12 mps 747 mmHg 14%
    15:00 +47°C° 0 mm 12 mps 747 mmHg 14%
    16:00 +44°C° 0 mm 11 mps 747 mmHg 15%
    17:00 +43°C° 0 mm 10 mps 747 mmHg 17%
    18:00 +42°C° 0 mm 9 mps 747 mmHg 19%
    19:00 +40°C° 0 mm 8 mps 747 mmHg 24%
    20:00 +38°C° 0 mm 7 mps 747 mmHg 28%
    21:00 +36°C° 0 mm 6 mps 747 mmHg 33%
    22:00 +36°C° 0 mm 6 mps 747 mmHg 35%
    23:00 +35°C° 0 mm 6 mps 747 mmHg 38%

    21 June, Friday

    Time Temperature Precipitation Wind Pressure Humidity
    00:00 +35°C° 0 mm 6 mps 746 mmHg 40%
    01:00 +35°C° 0 mm 6 mps 746 mmHg 41%
    02:00 +35°C° 0 mm 6 mps 746 mmHg 42%
    03:00 +35°C° 0 mm 7 mps 746 mmHg 43%
    04:00 +35°C° 0 mm 7 mps 746 mmHg 42%
    05:00 +35°C° 0 mm 8 mps 747 mmHg 41%
    06:00 +37°C° 0 mm 8 mps 747 mmHg 40%
    07:00 +39°C° 0 mm 9 mps 748 mmHg 33%
    08:00 +43°C° 0 mm 9 mps 748 mmHg 26%
    09:00 +47°C° 0 mm 10 mps 748 mmHg 18%
    10:00 +47°C° 0 mm 10 mps 748 mmHg 17%
    11:00 +48°C° 0 mm 10 mps 748 mmHg 16%
    12:00 +49°C° 0 mm 9 mps 748 mmHg 15%
    13:00 +48°C° 0 mm 10 mps 748 mmHg 16%
    14:00 +48°C° 0 mm 10 mps 747 mmHg 17%
    15:00 +47°C° 0 mm 10 mps 747 mmHg 17%
    16:00 +45°C° 0 mm 9 mps 747 mmHg 19%
    17:00 +43°C° 0 mm 9 mps 747 mmHg 22%
    18:00 +40°C° 0 mm 8 mps 747 mmHg 24%
    19:00 +39°C° 0 mm 6 mps 747 mmHg 29%
    20:00 +36°C° 0 mm 5 mps 747 mmHg 35%
    21:00 +34°C° 0 mm 4 mps 748 mmHg 40%
    22:00 +34°C° 0 mm 4 mps 747 mmHg 41%
    23:00 +33°C° 0 mm 4 mps 747 mmHg 41%
    Show more